Location: St Andrew
(49.4460°N, 2.5750°W)
Time: 08:28:17
(UTC+01:00)

Daily predictions for brighter satellites

Satellite Brightness Start Highest point End
(mag) Time Altitude Azimuth Time Altitude Azimuth Time Altitude Azimuth
SL-08 R/B 4.5 18:27:56 10° S 18:34:02 76° E 18:40:09 10° NNE
Landsat 4 4.0 18:32:38 10° NNE 18:36:14 44° E 18:39:48 10° S
EO 1 Del DPAF 4.1 18:34:50 10° NE 18:38:13 28° E 18:41:34 10° SSE
Cosmos 2058 3.0 18:34:14 10° NNW 18:38:25 83° W 18:42:34 10° S
SPOT 3 Rocket 3.8 18:36:55 10° SE 18:41:53 46° ENE 18:46:52 10° N
IRS-1A Rocket 4.4 18:37:18 10° SSE 18:43:12 85° ENE 18:49:09 10° NNW
Meteor 2-1 Rocket 4.3 18:37:39 10° S 18:43:27 68° E 18:49:21 10° NNE
Meteor 1-28 Rocket 3.3 18:41:20 10° NNE 18:45:04 53° E 18:48:44 10° S
ALOS 2.9 18:42:12 10° SE 18:46:25 34° ENE 18:50:38 10° N
Cosmos 2333 4.3 18:40:51 10° NNW 18:46:37 89° WSW 18:52:23 10° SSE
Cosmos 2151 3.4 18:42:28 10° NNW 18:46:44 68° W 18:50:56 10° S
Cosmos 158 Rocket 4.1 18:41:57 10° S 18:46:54 53° ESE 18:52:02 10° NNE
BREEZE-M DEB (TANK) 4.2 18:33:24 10° WSW 18:48:49 67° S 18:53:13 10° E
Sich 1 3.8 18:45:09 10° N 18:49:04 31° ENE 18:53:00 10° SE
Cosmos 1626 3.7 18:47:02 10° NNW 18:50:35 41° W 18:54:07 10° SSW
Cosmos 2237 Rocket 2.6 18:45:51 10° NNW 18:51:18 43° NE 18:56:43 10° ESE
Cosmos 2366 rocket 4.3 18:49:54 10° SSW 18:56:05 74° W 19:02:15 10° N
Cosmos 2098 Rocket 4.1 18:51:52 10° SSE 18:56:49 45° E 19:02:56 10° NNE
APEX 2.5 18:55:37 10° SSW 18:58:29 54° ESE 19:01:10 10° NE
CZ-4 R/B 2.2 18:56:24 10° S 19:00:30 58° W 19:04:34 10° NNW
COSMO-SKYMED 1 2.9 18:56:57 10° NNE 19:01:08 44° E 19:05:18 10° S
CZ-4C R/B 2.5 18:56:08 10° SSW 19:01:12 49° ESE 19:07:00 10° NE
SL-8 R/B 3.8 18:57:15 10° WSW 19:02:04 74° S 19:06:03 15° E
Cosmos 2227 Rocket 3.4 18:58:52 10° SSE 19:02:58 21° E 19:07:04 10° NE
Cosmos 1048 Rocket 4.0 18:59:05 10° S 19:04:06 61° ESE 19:09:10 10° NNE
SL-16 R/B 3.2 19:00:17 10° NNW 19:05:11 28° NE 19:09:03 14° E
Cosmos 1315 Rocket 3.8 19:03:00 10° NNW 19:07:00 54° W 19:11:02 10° S
ATLAS 5 CENTAUR R/B 3.8 19:04:46 10° NW 19:08:44 20° N 19:12:40 11° NE
Cosmos 1805 Rocket 3.5 19:04:58 10° N 19:09:22 69° ENE 19:13:46 10° SSE
Cosmos 2360 Rocket 4.4 19:04:51 10° NW 19:09:39 29° WSW 19:14:26 10° SSW
BREEZE M DEB (TANK) 2.3 19:04:03 10° W 19:10:01 73° SSW 19:11:53 18° ESE
Cosmos 44 2.9 19:06:01 10° SSW 19:10:21 75° SE 19:14:43 10° NE
Envisat 4.5 19:10:11 15° ENE 19:11:31 17° NE 19:14:41 10° NNE
Resurs 01 Rocket 3.2 19:14:43 16° ENE 19:14:58 16° ENE 19:17:37 10° NNE
Cosmos 1908 3.4 19:11:59 10° SSW 19:15:53 77° W 19:19:48 10° N
Cosmos 1980 3.7 19:10:45 10° NNW 19:16:23 66° ENE 19:22:00 10° SE
Meteor 2-10 4.4 19:12:39 10° SSE 19:17:20 39° E 19:22:10 10° NNE
Cosmos 1666 Rocket 3.5 19:14:47 10° N 19:19:06 57° ENE 19:23:20 10° SSE
FENGYUN 3A 3.6 19:15:35 10° SSE 19:20:57 69° ENE 19:26:22 10° N
Cosmos 1633 Rocket 3.2 19:17:46 10° N 19:22:07 51° ENE 19:26:26 10° SSE
Cosmos 1328 Rocket 4.4 19:21:37 10° SE 19:25:18 27° E 19:29:00 10° NNE
YAOGAN 1 3.7 19:21:15 10° S 19:25:25 47° W 19:29:38 10° NNW
Cosmos 1934 Rocket 4.1 19:19:54 10° SSE 19:26:04 54° E 19:32:15 10° NNE
H-2A R/B 3.3 19:22:49 10° SE 19:26:25 38° ENE 19:30:06 10° N
Cosmos 1933 Rocket 4.4 19:23:00 10° N 19:26:47 28° ENE 19:28:10 23° ESE
Cosmos 2084 4.3 19:24:27 10° NW 19:28:03 43° SW 19:31:44 10° SSE
Cosmos 2228 Rocket 4.1 19:24:39 10° SE 19:28:22 25° E 19:32:09 10° NNE
SJ-6B 3.4 19:29:03 27° ESE 19:30:09 32° ENE 19:33:31 10° N
COSMOS 2428 4.0 19:24:56 10° NW 19:30:16 42° WSW 19:35:34 10° S
Lacrosse 5 rocket 2.6 19:26:43 10° NW 19:30:38 31° N 19:32:33 21° NE
Cosmos 1821 Rocket 3.9 19:24:57 10° S 19:31:08 75° E 19:37:27 10° NNE
Cosmos 1331 Rocket 3.9 19:26:31 10° NNW 19:31:48 81° ENE 19:36:59 10° SSE
Cosmos 2333 Rocket 2.5 19:27:20 10° NNW 19:33:05 72° WSW 19:38:48 10° SSE
Meteor 2-3 Rocket 4.1 19:29:25 10° N 19:34:51 40° ENE 19:39:21 14° SE
Cosmos 1300 2.7 19:31:18 10° S 19:35:03 56° E 19:38:50 10° NNE
Cosmos 2239 Rocket 4.4 19:29:17 10° S 19:35:25 80° E 19:41:38 10° NNE
Cosmos 2219 3.2 19:30:12 10° SSW 19:35:57 86° ESE 19:41:44 10° NNE
Thor Agena Rocket 3.9 19:31:18 10° NNE 19:36:05 40° E 19:40:49 10° SSE
USA 234 3.9 19:32:52 18° ENE 19:37:25 46° N 19:43:37 10° WNW
Cosmos 1892 3.5 19:34:41 10° N 19:37:52 31° ENE 19:37:52 31° ENE
Cosmos 2221 3.1 19:34:16 10° SSW 19:38:33 59° WNW 19:42:54 10° N
Cosmos 2297 Rocket 2.8 19:34:39 10° SSE 19:39:36 32° ESE 19:41:54 24° ENE
NOAA 12 4.2 19:34:31 10° SSE 19:39:50 79° WSW 19:45:13 10° NNW
MINOTAUR R/B 4.3 19:37:48 10° SSW 19:40:07 56° SSE 19:40:07 56° SSE
SKYMED 2 4.0 19:44:57 10° N 19:49:16 62° WNW 19:53:33 10° SSW
Cosmos 2082 4.1 19:46:31 10° S 19:51:46 39° ESE 19:53:57 28° ENE
Abrixas rocket 3.2 19:50:31 10° W 19:53:35 37° SSW 19:54:16 33° S
Cosmos 44 Rocket 3.9 19:50:41 10° WSW 19:55:17 54° NW 19:59:00 16° NNE
Cosmos 2219 Rocket 3.4 19:50:03 10° NW 19:55:18 42° WSW 20:00:32 10° S
SAR-Lupe-3 4.4 19:53:47 28° NNE 19:55:32 65° ESE 19:59:05 10° S
Cosmos 1726 2.9 19:51:56 10° SSW 19:55:32 53° WNW 19:59:10 10° N
HJ-1C 3.6 19:56:05 52° NE 19:56:05 52° NE 19:59:04 10° N
CZ-2D R/B 4.1 19:58:12 34° NE 19:58:12 34° NE 20:00:58 10° N
Cosmos 2123 Rocket 4.1 19:52:03 10° N 19:58:20 82° W 20:04:37 10° S
DMSP B5D1-3 4.5 19:53:40 10° NNE 19:58:51 87° WNW 20:04:00 10° SSW
Iridium 4 Rocket 4.4 19:53:49 10° SSW 19:59:32 60° W 20:05:25 10° N
Cosmos 1302 Rocket 3.9 19:57:21 10° NNW 20:02:37 85° ENE 20:06:11 21° SSE
BREEZE-M R/B 4.1 20:00:20 10° SSW 20:01:38 21° S 20:01:38 21° S
FREGAT/IRIS 2.9 20:05:31 63° WSW 20:05:36 64° W 20:08:35 10° NNW
Cosmos 1605 Rocket 3.8 19:59:43 10° S 20:05:47 72° E 20:11:51 10° NNE
SWAS 4.3 20:04:13 10° SSW 20:08:29 75° ESE 20:09:19 55° NE
Cosmos 494 Rocket 3.8 20:06:27 10° SSW 20:11:33 82° ESE 20:16:06 14° NNE
Cosmos 1153 Rocket 4.4 20:07:39 10° S 20:13:40 58° E 20:19:46 10° NNE
Meteor 2-17 Rocket 4.5 20:08:31 10° SSE 20:14:23 53° E 20:20:19 10° NNE
FengYun 1-2 T 4.3 20:08:57 10° S 20:14:26 75° WSW 20:19:57 10° NNW
Spot 2 Rocket 3.8 20:14:47 46° ENE 20:14:47 46° ENE 20:19:27 10° N
BREEZE-M DEB (TANK) 4.4 20:15:32 10° WSW 20:16:11 19° WSW 20:16:11 19° WSW
Cosmos 1470 Rocket 3.5 20:13:14 10° N 20:17:44 84° W 20:19:49 32° S
BREEZE-M DEB (TANK) 3.7 20:17:09 10° WSW 20:17:52 20° WSW 20:17:52 20° WSW
ALOS 4.0 20:19:39 10° SSW 20:23:51 32° W 20:28:05 10° NNW
Cosmos 1992 Rocket 4.3 20:19:15 10° NNW 20:23:56 48° NE 20:23:56 48° NE
Meteor 2-2 Rocket 4.4 20:25:41 10° SSW 20:31:20 72° WNW 20:36:59 10° N
MOS 1-B Rocket 3.9 20:28:25 28° SSE 20:31:41 89° ENE 20:38:16 10° NNW
Cosmos 2237 Rocket 3.5 20:30:05 10° NW 20:35:19 38° WSW 20:40:32 10° S
USA 32 4.3 20:30:39 10° N 20:35:52 68° W 20:41:03 10° S
Meteor 1-27 4.1 20:30:25 10° S 20:36:10 81° E 20:42:02 10° NNE
Cosmos 1943 4.4 20:35:12 10° NNW 20:39:02 28° NNE 20:39:02 28° NNE
SL-8 R/B 3.9 20:39:44 10° W 20:44:01 66° WSW 20:44:01 66° WSW
Cosmos 2227 Rocket 2.3 20:40:45 10° SW 20:46:25 74° WNW 20:49:00 34° NNE
H-2A R/B 4.4 20:50:34 13° NNE 20:50:34 13° NNE 20:51:22 10° NNE
SL-16 R/B 2.4 20:44:08 10° NNW 20:49:47 66° WSW 20:50:58 52° SSW
CZ-4C R/B 3.2 20:44:31 10° WSW 20:49:49 44° NNW 20:52:59 25° NNE
Envisat 3.1 20:50:25 72° NNW 20:50:25 72° NNW 20:55:00 10° NNW
Cosmos 1603 4.2 20:45:01 10° NNW 20:49:36 47° NNE 20:49:36 47° NNE
Resurs 01 Rocket 2.5 20:52:19 43° NNW 20:52:19 43° NNW 20:55:21 10° NNW
ATLAS 5 CENTAUR R/B 3.1 20:49:37 10° NW 20:54:12 38° NNE 20:54:12 38° NNE
Cosmos 2251 Rocket 4.0 20:54:09 10° SW 20:59:23 59° WNW 21:01:26 36° N
Cosmos 2228 Rocket 4.4 21:02:07 10° SW 21:06:24 39° WNW 21:10:44 10° N
Lacrosse 5 rocket 3.4 21:06:14 10° NW 21:08:15 26° NW 21:08:15 26° NW
USA 234 3.4 21:20:13 64° N 21:20:13 64° N 21:26:25 10° WNW
Cosmos 2297 Rocket 2.9 21:17:58 10° SW 21:23:27 49° NW 21:23:48 49° NW
